TimeEDT,TemperatureF,Dew PointF,Humidity,Sea Level PressureIn,VisibilityMPH,Wind Direction,Wind SpeedMPH,Gust SpeedMPH,PrecipitationIn,Events,Conditions,WindDirDegrees,DateUTC
12:53 AM,37.9,36.0,93,30.16,10.0,Calm,Calm,-,N/A,,Clear,0,2012-10-22 04:53:00
1:53 AM,37.9,36.0,93,30.16,10.0,Calm,Calm,-,N/A,,Clear,0,2012-10-22 05:53:00
2:53 AM,37.0,35.1,93,30.17,8.0,Calm,Calm,-,N/A,,Clear,0,2012-10-22 06:53:00
3:53 AM,37.0,35.1,93,30.17,6.0,Calm,Calm,-,N/A,,Clear,0,2012-10-22 07:53:00
4:53 AM,37.0,36.0,96,30.17,7.0,SE,3.5,-,N/A,,Clear,130,2012-10-22 08:53:00
5:53 AM,37.9,37.0,97,30.18,6.0,ESE,3.5,-,N/A,,Clear,110,2012-10-22 09:53:00
6:53 AM,37.0,36.0,96,30.20,6.0,East,3.5,-,N/A,,Clear,100,2012-10-22 10:53:00
7:53 AM,37.0,36.0,96,30.21,4.0,ESE,4.6,-,N/A,,Clear,120,2012-10-22 11:53:00
9:53 AM,48.0,41.0,77,30.20,10.0,ESE,4.6,-,N/A,,Clear,120,2012-10-22 13:53:00
10:53 AM,54.0,42.1,64,30.19,10.0,ESE,4.6,-,N/A,,Clear,110,2012-10-22 14:53:00
11:53 AM,64.9,45.0,48,30.18,10.0,Variable,4.6,-,N/A,,Clear,0,2012-10-22 15:53:00
12:53 PM,66.9,46.0,47,30.15,10.0,SE,6.9,-,N/A,,Clear,130,2012-10-22 16:53:00
1:53 PM,72.0,46.9,41,30.12,10.0,SSE,6.9,-,N/A,,Clear,160,2012-10-22 17:53:00
2:53 PM,73.9,48.0,40,30.09,10.0,South,6.9,-,N/A,,Clear,170,2012-10-22 18:53:00
3:53 PM,75.0,50.0,41,30.10,10.0,Variable,5.8,-,N/A,,Clear,0,2012-10-22 19:53:00
4:53 PM,73.0,50.0,44,30.10,10.0,Calm,Calm,-,N/A,,Scattered Clouds,0,2012-10-22 20:53:00
5:53 PM,71.1,51.1,49,30.10,10.0,Calm,Calm,-,N/A,,Partly Cloudy,0,2012-10-22 21:53:00
6:53 PM,64.9,53.1,65,30.10,10.0,ESE,4.6,-,N/A,,Mostly Cloudy,120,2012-10-22 22:53:00
7:53 PM,63.0,53.1,70,30.09,9.0,SE,4.6,-,N/A,,Mostly Cloudy,130,2012-10-22 23:53:00
9:53 PM,63.0,51.1,65,30.07,10.0,SSE,4.6,-,N/A,,Clear,160,2012-10-23 01:53:00
10:53 PM,59.0,51.1,75,30.08,10.0,Calm,Calm,-,N/A,,Clear,0,2012-10-23 02:53:00
11:53 PM,57.0,50.0,77,30.07,9.0,Calm,Calm,-,N/A,,Clear,0,2012-10-23 03:53:00